Regional Weather Roundup
Issued by NWS Grand Forks, ND

Home | Current Version | Previous Version | Graphics & Text | Print | Product List | Glossary On
Versions: 1 2 3 4 5 6 7 8 9 10 11 12 13 14 15 16 17 18 19 20 21 22 23 24 25 26 27 28 29 30 31 32 33 34 35 36 37 38 39 40 41 42 43 44 45 46 47 48 49 50
000
ASUS43 KFGF 051410
RWRFGF
PRAIRIE TO PINES  WEATHER ROUNDUP
NATIONAL WEATHER SERVICE EASTERN NORTH DAKOTA/GRAND FORKS ND
900 AM CDT TUE MAY 05 2015

 **SATELLITE DATA USED TO AUGMENT SKY COVER AT AUTOMATED STATIONS**
 *****  WEATHER ACROSS EASTERN NORTH DAKOTA  *****

CITY           SKY/WX    TMP DP  RH WIND       PRES   REMARKS
GRAND FORKS    MOSUNNY   59  31  34 S9        30.17F
GRAND FRKS AFB MOSUNNY   60  26  27 S18       30.16F
GRAND FRKS NWS   N/A     57 N/A N/A S9          N/A
DEVILS LAKE    PTSUNNY   57  34  41 S17       30.11F
FARGO          SUNNY     61  26  26 SE14      30.17F
WAHPETON ARPT  SUNNY     61  25  25 SE14      30.17F
$$

 ***** WEATHER ACROSS CENTRAL AND WESTERN NORTH DAKOTA  *****

CITY           SKY/WX    TMP DP  RH WIND       PRES   REMARKS
BISMARCK       MOSUNNY   57  35  43 SE14      30.06S
MINOT          CLOUDY    58  30  34 SE16G25   30.01F
JAMESTOWN      MOSUNNY   59  30  33 S15G24    30.12F
MINOT AFB      PTSUNNY   60  32  34 S18G25    30.00F
GARRISON         N/A     57  32  38 S17       30.01S
WILLISTON      SUNNY     57  29  34 S8        29.94F
DICKINSON      SUNNY     54  32  43 S21G28    29.95F
HETTINGER      MOSUNNY   54  32  43 SE16      30.00S
$$

 *****  OTHER AIRPORT OBSERVATIONS IN OUR AREA  *****

CITY           SKY/WX    TMP DP  RH WIND       PRES   REMARKS
WALHALLA       FAIR      64  30  27 S13       30.13S
GRAFTON AIRPOR FAIR      59  30  33 S15       30.17F
VALLEY CITY AR FAIR      59  28  31 SE10      30.15S
CANDO          FAIR      57  32  38 S15       30.11F
CAVALIER APRT  FAIR      57  28  33 S15G23    30.14F
GWINNER        SUNNY     59  32  36 SE14      30.17S
SHEYENNE NWR     N/A     57  31  37 SE7       29.95S
ROLLA          NOT AVBL
 ***** THE ABOVE OBSERVATIONS ARE NON NWS ARE NOT QUALITY
       CONTROLLED AND MAY MIS-REPORT RAIN FOR SNOW...
$$

  *****  WEATHER ACROSS NORTHERN MINNESOTA  *****

CITY           SKY/WX    TMP DP  RH WIND       PRES   REMARKS
FLAG ISLAND    SUNNY     48  39  71 SE9       30.20R
WARROAD        SUNNY     61  34  36 S6        30.20S
ROSEAU         SUNNY     61  28  29 S14       30.19S
HALLOCK        SUNNY     59  25  27 S15       30.16F
THF RVR FALLS  SUNNY     61  25  25 S16       30.20S
BAUDETTE       SUNNY     57  34  41 S8        30.22S
WASKISH        SUNNY     61  30  31 SE5       30.22S
CROOKSTON      SUNNY     61  27  27 S14       30.19F
$$
  *****  WEATHER ACROSS CENTRAL AND WEST MINNESOTA  *****

CITY           SKY/WX    TMP DP  RH WIND       PRES   REMARKS
FOSSTON        SUNNY     61  21  21 SE13      30.21S
BEMIDJI        SUNNY     59  29  31 SE10      30.22F
PARK RAPIDS    SUNNY     60  24  25 SE15      30.22S
ELBOW LAKE     FAIR      60  27  28 SE13G20   30.18S
WADENA         SUNNY     54  30  40 E8        30.21F
DETROIT LAKES  SUNNY     55  28  35 SE12      30.21F
MOORHEAD       SUNNY     61  25  25 SE13G18   30.18F
FERGUS FALLS   SUNNY     61  27  27 SE10      30.19F
MORRIS MN      SUNNY     63  28  27 E13       30.17R
STAPLES        SUNNY     54  28  37 E6        30.22F
$$
  *****  WEATHER ELSEWHERE ACROSS MINNESOTA  *****

CITY           SKY/WX    TMP DP  RH WIND       PRES   REMARKS
DULUTH         SUNNY     57  30  35 S9        30.28S
INTRNTL FALLS  SUNNY     59  28  30 S6        30.23S
ELY            SUNNY     59  21  23 S10       30.27S
CLOQUET        SUNNY     54  28  37 SE7       30.28S
WHEATON        SUNNY     61  28  29 SE16      30.18F
BRAINERD       SUNNY     58  32  37 SE6       30.24S
HIBBING        SUNNY     55  26  32 VRB6      30.27S
ALEXANDRIA     SUNNY     58  27  30 E12       30.20F
SAINT CLOUD    SUNNY     57  35  43 E9        30.20F
MINNEAPOLIS    MOSUNNY   59  40  49 E12       30.21R
$$

  *****  WEATHER ACROSS SOUTH DAKOTA  *****

CITY           SKY/WX    TMP DP  RH WIND       PRES   REMARKS
SIOUX FALLS    PTSUNNY   60  36  40 E13       30.10S
BROOKINGS      SUNNY     61  30  31 E17       30.12F
WATERTOWN      SUNNY     59  27  29 E9        30.14F
HURON          SUNNY     61  34  36 E12       30.10F
SISSETON         N/A     58  29  33 S12       30.15F
ABERDEEN       MOSUNNY   62  32  32 SE13      30.13F
MITCHELL       MOSUNNY   59  36  42 E12       30.10S
PIERRE         CLOUDY    55  42  61 SE15      30.05F
MOBRIDGE       MOSUNNY   60  38  43 SE14      30.05F
RAPID CITY     SUNNY     50  38  63 SE7       29.99F
$$

  *****  SOME WEATHER IN NEARBY STATES *****

CITY           SKY/WX    TMP DP  RH WIND       PRES   REMARKS
GLASGOW MT     SUNNY     52  36  54 E16       29.82F
GREAT FALLS MT MOSUNNY   50  34  54 N3        29.78R
CHEYENNE WY    FOG       43  43 100 S10       30.00S VSB 1/4
SCOTTSBLUFF NE CLOUDY    49  46  90 S12G23    30.01S FOG
OMAHA NE       CLOUDY    63  60  90 S9        30.09R
DES MOINES IA  CLOUDY    64  61  90 S8        30.11R
DAVENPORT IA   CLOUDY    59  57  93 E8        30.18R FOG
CHICAGO IL     CLOUDY    51  50  96 NE8       30.21R
EAU CLAIRE WI  PTSUNNY   57  29  34 SE7       30.26R
LA CROSSE WI   LGT RAIN  54  48  80 SE10      30.24R
$$

  *****  SOME NATIONAL WEATHER *****

CITY           SKY/WX    TMP DP  RH WIND       PRES   REMARKS
LA GUARDIA NY  PTSUNNY   68  51  54 NW9       30.20R
RALEIGH NC     MOSUNNY   72  55  55 SW13      30.36S
ATLANTA GA     SUNNY     68  54  60 SE3       30.34F
NEW ORLEANS LA SUNNY     77  63  61 SE14G22   30.17S
OKLAHOMA CITY  PTSUNNY   66  57  72 SE12      30.03S
ALBUQUERQUE NM MOSUNNY   52  47  83 S10       29.96S
SALT LAKE CITY CLOUDY    60  44  55 S3        29.85R
LOS ANGELES CA CLOUDY    58  51  78 SE6       30.00R
BOISE ID       SUNNY     54  34  46 NW9       29.85R
SEATTLE WA     RAIN      46  43  89 SW13G20   30.01R FOG
$$

*** WEATHER ACROSS MANITOBA...SASKATCHEWAN AND ONTARIO ***
                ***ONTARIO***

CITY           SKY/WX    TMP DP  RH WIND       PRES   REMARKS
GERALDTON      MOSUNNY   54  30  40 W6        30.27S
THUNDER BAY    SUNNY     54  32  43 CALM      30.31R
SIOUX LOOKOUT  MOSUNNY   52  34  50 S6        30.23R
TORONTO          N/A     57  43  58 E6        30.30S
BIG TROUT LK   SUNNY     37  21  52 NW13      30.21S
PICKLE LAKE    PTSUNNY   45  27  49 W3        30.23S
DRYDEN         SUNNY     55  32  41 SW9       30.22S
KENORA         SUNNY     55  32  41 SW12      30.21S
$$
                *** MANITOBA***

CITY           SKY/WX    TMP DP  RH WIND       PRES   REMARKS
BRANDON        PTSUNNY   57  34  41 S8        30.06F
DAUPHIN        MOSUNNY   48  39  71 CALM      30.04S
ISLAND LAKE    PTSUNNY   37  23  56 SE6       30.22F
PILOT MOUND      N/A     57  28  33 S23G30      N/A
THE PAS        CLOUDY    36  27  69 NE7       30.12S
THOMPSON       MOSUNNY   36  18  48 N3        30.21F
WINNIPEG       MOSUNNY   59  28  31 S13       30.14S
LYNN LAKE      SUNNY     36  18  48 VRB3      30.19S
GILLAM         MOSUNNY   30  21  69 W8        30.21S WCI  23
$$
                ***SASKATCHEWAN***

CITY           SKY/WX    TMP DP  RH WIND       PRES   REMARKS
ESTEVAN        MOSUNNY   55  34  44 S18G26    29.94F
KINDERSLEY     MOSUNNY   48  41  76 E13       29.71S
LLOYDMINSTER   PTSUNNY   45  32  61 E23       29.79R
PRINCE ALBERT  PTSUNNY   46  36  66 E24       29.93F
REGINA         PTSUNNY   52  34  50 SE21G26   29.87F
YORKTON        SUNNY     54  37  54 S9        29.95F
N. BATTLEFORD  PTSUNNY   48  36  61 E25G36    29.82S
LA RONGE       PTSUNNY   37  21  52 NE12G17   30.11S
SASKATOON      PTSUNNY   52  43  71 E17       29.83F
SWIFT CURRENT  SUNNY     54  41  62 S17G25    29.73S
$$
NOTE: THESE ARE AUTOMATED STATIONS WITH LIMITED QUALITY CONTROL
      "FAIR" INDICATES FEW OR NO CLOUDS BELOW 12,000 FEET WITH NO
      SIGNIFICANT WEATHER AND/OR OBSTRUCTIONS TO VISIBILITY.
      SKY/WX - SKY CONDITION AND SIGNIFICANT WEATHER.
      TMP - AIR TEMPERATURE.    DP   - DEWPOINT TEMPERATURE.
      RH  - RELATIVE HUMIDITY.  PRES - PRESSURE.
      HX  - HEAT INDEX.         WCI  - WIND CHILL INDEX.
$



USA.gov is the U.S. government's official web portal to all federal, state and local government web resources and services.